Tampa, FL

7:24 AM EDT on August 26, 2016 (GMT -0400)
Tampa International

Weather History for KTPA - September, 2013

Change the Weather History Date:

Saturday, September 7, 2013

  Actual Average Record
Temperature  
Mean Temperature 81 °F 83 °F  
Max Temperature 89 °F 90 °F 96 °F (1961)
Min Temperature 73 °F 76 °F 68 °F (1964)
Degree Days  
Heating Degree Days 0 0  
Month to date heating degree days 0 0  
Since 1 July heating degree days 0 0  
Cooling Degree Days 16 18  
Month to date cooling degree days 128 126  
Year to date cooling degree days 2765 2641  
Growing Degree Days 31 (Base 50)    
Moisture  
Dew Point 71 °F    
Average Humidity 73    
Maximum Humidity 87    
Minimum Humidity 59    
Precipitation  
Precipitation 0.00 in 0.25 in 2.50 in (2006)
Month to date precipitation 0.81 1.76  
Year to date precipitation 43.33 35.48  
Sea Level Pressure  
Sea Level Pressure 29.99 in    
Wind  
Wind Speed 5 mph (NE)    
Max Wind Speed 15 mph    
Max Gust Speed 21 mph    
Visibility 10 miles    
Events      
T = Trace of Precipitation, MM = Missing Value Source: NWS Daily Summary

Daily Weather History Graph

Daily Weather History Graph

Search for Another Location

Airport or City:

Trip Planner

Search our weather history database for the weather conditions in past years. The results will help you decide how hot, cold, wet, or windy it might be!

Date:

Astronomy

Sep. 07, 2013 Rise Set
Actual Time 7:11 AM EDT 7:43 PM EDT
Civil Twilight 6:48 AM EDT 8:07 PM EDT
Nautical Twilight 6:20 AM EDT 8:35 PM EDT
Astronomical Twilight 5:52 AM EDT 9:03 PM EDT
Moon 9:08 AM EDT (9/7) 9:00 PM EDT (9/7)
Length of Visible Light 13h 19m
Length of Day
12h 32m
Waxing Crescent, 5% of the Moon is Illuminated
Sep 7
Waxing Crescent
Sep 12
First Quarter
Sep 19
Full
Sep 26
Last Quarter
Oct 4
New

Hourly Weather History & Observations

Time (EDT) Temp. Heat Index Dew Point Humidity Pressure Visibility Wind Dir Wind Speed Gust Speed Precip Events Conditions
12:53 AM 75.9 °F - 70.0 °F 82% 30.03 in 10.0 mi ENE 6.9 mph - N/A   Scattered Clouds
1:53 AM 75.0 °F - 71.1 °F 87% 30.02 in 10.0 mi Calm Calm - N/A   Partly Cloudy
2:53 AM 73.9 °F - 70.0 °F 87% 30.00 in 10.0 mi ENE 3.5 mph - N/A   Partly Cloudy
3:53 AM 73.9 °F - 69.1 °F 85% 30.01 in 10.0 mi NNE 6.9 mph - N/A   Partly Cloudy
4:53 AM 73.0 °F - 69.1 °F 87% 29.99 in 10.0 mi ENE 4.6 mph - N/A   Partly Cloudy
5:53 AM 73.9 °F - 68.0 °F 82% 29.99 in 10.0 mi NNE 5.8 mph - N/A   Partly Cloudy
6:53 AM 73.0 °F - 70.0 °F 90% 30.00 in 10.0 mi NNE 5.8 mph - N/A   Scattered Clouds
7:53 AM 73.0 °F - 70.0 °F 90% 30.00 in 10.0 mi NNE 4.6 mph - N/A   Mostly Cloudy
8:53 AM 75.9 °F - 71.1 °F 85% 30.01 in 10.0 mi NE 6.9 mph - N/A   Mostly Cloudy
9:53 AM 80.1 °F 83.8 °F 72.0 °F 76% 30.02 in 10.0 mi NE 8.1 mph - N/A   Scattered Clouds
10:53 AM 82.0 °F 86.7 °F 72.0 °F 71% 30.04 in 10.0 mi NE 5.8 mph - N/A   Scattered Clouds
11:53 AM 84.0 °F 89.6 °F 72.0 °F 67% 30.04 in 10.0 mi Variable 3.5 mph - N/A   Scattered Clouds
12:53 PM 86.0 °F 91.5 °F 71.1 °F 61% 30.03 in 10.0 mi ESE 6.9 mph - N/A   Scattered Clouds
1:53 PM 87.1 °F 92.8 °F 71.1 °F 59% 30.01 in 10.0 mi Calm Calm - N/A   Scattered Clouds
2:53 PM 88.0 °F 93.8 °F 71.1 °F 57% 29.98 in 10.0 mi Variable 6.9 mph - N/A   Mostly Cloudy
3:53 PM 88.0 °F 93.8 °F 71.1 °F 57% 29.96 in 10.0 mi SW 8.1 mph - N/A   Scattered Clouds
4:53 PM 88.0 °F 93.8 °F 71.1 °F 57% 29.93 in 10.0 mi WSW 8.1 mph - N/A   Partly Cloudy
5:53 PM 87.1 °F 93.6 °F 72.0 °F 61% 29.93 in 10.0 mi NNW 8.1 mph 18.4 mph N/A   Scattered Clouds
6:53 PM 84.0 °F 88.4 °F 70.0 °F 63% 29.95 in 10.0 mi NNW 8.1 mph - N/A   Scattered Clouds
7:53 PM 80.1 °F 83.2 °F 70.0 °F 71% 29.97 in 10.0 mi North 10.4 mph - N/A   Scattered Clouds
8:53 PM 81.0 °F 84.4 °F 70.0 °F 69% 29.99 in 10.0 mi SE 5.8 mph - N/A   Mostly Cloudy
9:53 PM 78.1 °F - 70.0 °F 76% 30.00 in 10.0 mi Variable 3.5 mph - N/A   Mostly Cloudy
10:53 PM 78.1 °F - 71.1 °F 79% 29.98 in 10.0 mi Calm Calm - N/A   Partly Cloudy
11:53 PM 78.1 °F - 72.0 °F 81% 29.98 in 10.0 mi Calm Calm - N/A   Partly Cloudy